• In Uzbekistan
  • List of Countries
  • For 7 days
  • Water Temperature
  • Satellite Maps
  • Weather Map
  • Weather Widgets
  • user-avatar
    Login

    Hourly Weather Artashat

    Today, 23 September, Sunday

    Time Temperature Precipitation Wind Pressure Humidity
    00:00 +11°C° 0.1 mm 0 mps 604 mmHg 66%
    01:00 +10°C° 0 mm 0 mps 604 mmHg 66%
    02:00 +10°C° 0 mm 0 mps 604 mmHg 67%
    03:00 +10°C° 0 mm 1 mps 603 mmHg 68%
    04:00 +9°C° 0 mm 0 mps 603 mmHg 69%
    05:00 +8°C° 0 mm 0 mps 603 mmHg 69%
    06:00 +8°C° 0 mm 0 mps 603 mmHg 70%
    07:00 +10°C° 0 mm 0 mps 604 mmHg 60%
    08:00 +13°C° 0 mm 1 mps 604 mmHg 51%
    09:00 +16°C° 0 mm 1 mps 605 mmHg 40%
    10:00 +18°C° 0 mm 1 mps 606 mmHg 36%
    11:00 +19°C° 0 mm 1 mps 606 mmHg 32%
    12:00 +20°C° 0 mm 1 mps 606 mmHg 29%
    13:00 +19°C° 0 mm 2 mps 606 mmHg 27%
    14:00 +20°C° 0 mm 2 mps 606 mmHg 26%
    15:00 +20°C° 0 mm 2 mps 606 mmHg 24%
    16:00 +19°C° 0 mm 2 mps 605 mmHg 27%
    17:00 +18°C° 0 mm 2 mps 605 mmHg 30%
    18:00 +16°C° 0 mm 1 mps 604 mmHg 33%
    19:00 +16°C° 0 mm 1 mps 605 mmHg 36%
    20:00 +15°C° 0 mm 1 mps 605 mmHg 38%
    21:00 +14°C° 0 mm 1 mps 605 mmHg 41%
    22:00 +14°C° 0 mm 1 mps 605 mmHg 43%
    23:00 +13°C° 0 mm 1 mps 605 mmHg 46%

    Tomorrow, 24 September, Monday

    Time Temperature Precipitation Wind Pressure Humidity
    00:00 +13°C° 0 mm 1 mps 605 mmHg 48%
    01:00 +12°C° 0 mm 1 mps 605 mmHg 50%
    02:00 +12°C° 0 mm 1 mps 604 mmHg 53%
    03:00 +11°C° 0 mm 1 mps 604 mmHg 56%
    04:00 +11°C° 0 mm 1 mps 604 mmHg 59%
    05:00 +10°C° 0 mm 1 mps 604 mmHg 61%
    06:00 +10°C° 0 mm 1 mps 604 mmHg 64%
    07:00 +12°C° 0 mm 1 mps 605 mmHg 56%
    08:00 +14°C° 0 mm 1 mps 606 mmHg 49%
    09:00 +16°C° 0 mm 1 mps 607 mmHg 41%
    10:00 +18°C° 0 mm 1 mps 607 mmHg 37%
    11:00 +19°C° 0 mm 1 mps 607 mmHg 33%
    12:00 +20°C° 0 mm 1 mps 607 mmHg 29%
    13:00 +20°C° 0 mm 2 mps 607 mmHg 28%
    14:00 +20°C° 0 mm 2 mps 607 mmHg 27%
    15:00 +21°C° 0 mm 2 mps 607 mmHg 25%
    16:00 +19°C° 0 mm 2 mps 607 mmHg 28%
    17:00 +18°C° 0 mm 2 mps 606 mmHg 31%
    18:00 +16°C° 0 mm 1 mps 605 mmHg 33%
    19:00 +16°C° 0 mm 1 mps 605 mmHg 36%
    20:00 +15°C° 0 mm 1 mps 605 mmHg 38%
    21:00 +14°C° 0 mm 1 mps 605 mmHg 40%
    22:00 +13°C° 0 mm 1 mps 605 mmHg 42%
    23:00 +13°C° 0 mm 1 mps 605 mmHg 43%

    Day after tomorrow, 25 September, Tuesday

    Time Temperature Precipitation Wind Pressure Humidity
    00:00 +12°C° 0 mm 1 mps 605 mmHg 45%
    01:00 +12°C° 0 mm 1 mps 604 mmHg 45%
    02:00 +11°C° 0 mm 1 mps 604 mmHg 46%
    03:00 +11°C° 0 mm 1 mps 604 mmHg 47%
    04:00 +9°C° 0 mm 0 mps 603 mmHg 48%
    05:00 +9°C° 0 mm 0 mps 603 mmHg 49%
    06:00 +9°C° 0 mm 0 mps 603 mmHg 49%
    07:00 +12°C° 0 mm 1 mps 604 mmHg 43%
    08:00 +15°C° 0 mm 1 mps 605 mmHg 36%
    09:00 +18°C° 0 mm 1 mps 606 mmHg 30%
    10:00 +20°C° 0 mm 1 mps 606 mmHg 28%
    11:00 +21°C° 0 mm 1 mps 606 mmHg 26%
    12:00 +21°C° 0 mm 2 mps 606 mmHg 23%
    13:00 +23°C° 0 mm 2 mps 606 mmHg 23%
    14:00 +23°C° 0 mm 2 mps 606 mmHg 22%
    15:00 +24°C° 0 mm 2 mps 605 mmHg 21%
    16:00 +21°C° 0 mm 2 mps 605 mmHg 24%
    17:00 +20°C° 0 mm 1 mps 604 mmHg 27%
    18:00 +18°C° 0 mm 1 mps 603 mmHg 30%
    19:00 +18°C° 0 mm 1 mps 603 mmHg 33%
    20:00 +16°C° 0 mm 1 mps 603 mmHg 36%
    21:00 +15°C° 0 mm 1 mps 603 mmHg 38%
    22:00 +15°C° 0 mm 1 mps 603 mmHg 40%
    23:00 +14°C° 0 mm 1 mps 603 mmHg 42%

    26 September, Wednesday

    Time Temperature Precipitation Wind Pressure Humidity
    00:00 +14°C° 0 mm 1 mps 603 mmHg 44%
    01:00 +13°C° 0 mm 1 mps 603 mmHg 46%
    02:00 +13°C° 0 mm 1 mps 602 mmHg 48%
    03:00 +12°C° 0 mm 1 mps 602 mmHg 50%
    04:00 +12°C° 0 mm 1 mps 602 mmHg 52%
    05:00 +11°C° 0 mm 1 mps 602 mmHg 54%
    06:00 +11°C° 0 mm 1 mps 602 mmHg 57%
    07:00 +13°C° 0 mm 2 mps 603 mmHg 50%
    08:00 +15°C° 0 mm 2 mps 604 mmHg 44%
    09:00 +17°C° 0 mm 2 mps 605 mmHg 37%
    10:00 +18°C° 0 mm 2 mps 605 mmHg 34%
    11:00 +19°C° 0 mm 2 mps 605 mmHg 30%
    12:00 +20°C° 0 mm 2 mps 605 mmHg 27%
    13:00 +21°C° 0 mm 2 mps 605 mmHg 25%
    14:00 +21°C° 0 mm 2 mps 604 mmHg 24%
    15:00 +22°C° 0 mm 3 mps 604 mmHg 23%
    16:00 +20°C° 0 mm 2 mps 604 mmHg 27%
    17:00 +19°C° 0 mm 2 mps 603 mmHg 30%
    18:00 +17°C° 0 mm 2 mps 603 mmHg 34%
    19:00 +16°C° 0.1 mm 2 mps 603 mmHg 38%
    20:00 +15°C° 0.1 mm 2 mps 603 mmHg 43%
    21:00 +15°C° 0.1 mm 2 mps 603 mmHg 47%
    22:00 +14°C° 0 mm 1 mps 603 mmHg 50%
    23:00 +13°C° 0 mm 1 mps 603 mmHg 53%

    27 September, Thursday

    Time Temperature Precipitation Wind Pressure Humidity
    00:00 +13°C° 0 mm 1 mps 603 mmHg 56%
    01:00 +12°C° 0 mm 1 mps 603 mmHg 59%
    02:00 +12°C° 0 mm 1 mps 603 mmHg 61%
    03:00 +11°C° 0 mm 1 mps 603 mmHg 64%
    04:00 +11°C° 0 mm 1 mps 603 mmHg 66%
    05:00 +11°C° 0 mm 1 mps 603 mmHg 68%
    06:00 +10°C° 0 mm 1 mps 603 mmHg 70%
    07:00 +12°C° 0 mm 1 mps 604 mmHg 62%
    08:00 +14°C° 0 mm 2 mps 605 mmHg 55%
    09:00 +16°C° 0 mm 2 mps 606 mmHg 48%
    10:00 +17°C° 0 mm 2 mps 606 mmHg 44%
    11:00 +19°C° 0 mm 3 mps 606 mmHg 39%
    12:00 +20°C° 0 mm 3 mps 607 mmHg 35%
    13:00 +21°C° 0 mm 3 mps 607 mmHg 34%
    14:00 +21°C° 0 mm 3 mps 606 mmHg 33%
    15:00 +21°C° 0 mm 3 mps 606 mmHg 32%
    16:00 +20°C° 0 mm 3 mps 606 mmHg 35%
    17:00 +19°C° 0 mm 2 mps 606 mmHg 39%
    18:00 +18°C° 0 mm 2 mps 605 mmHg 42%
    19:00 +17°C° 0 mm 2 mps 605 mmHg 46%
    20:00 +16°C° 0 mm 2 mps 605 mmHg 50%
    21:00 +15°C° 0 mm 1 mps 606 mmHg 53%
    22:00 +15°C° 0 mm 1 mps 605 mmHg 54%
    23:00 +14°C° 0 mm 2 mps 605 mmHg 55%

    28 September, Friday

    Time Temperature Precipitation Wind Pressure Humidity
    00:00 +14°C° 0 mm 2 mps 605 mmHg 55%
    01:00 +13°C° 0 mm 1 mps 605 mmHg 57%
    02:00 +13°C° 0 mm 1 mps 605 mmHg 59%
    03:00 +12°C° 0 mm 1 mps 605 mmHg 61%
    04:00 +12°C° 0 mm 1 mps 605 mmHg 63%
    05:00 +11°C° 0 mm 1 mps 605 mmHg 65%
    06:00 +11°C° 0 mm 1 mps 605 mmHg 66%
    07:00 +13°C° 0 mm 1 mps 606 mmHg 58%
    08:00 +15°C° 0 mm 1 mps 607 mmHg 50%
    09:00 +19°C° 0 mm 1 mps 608 mmHg 42%
    10:00 +20°C° 0 mm 1 mps 608 mmHg 37%
    11:00 +20°C° 0 mm 2 mps 608 mmHg 32%
    12:00 +23°C° 0 mm 2 mps 609 mmHg 28%
    13:00 +23°C° 0 mm 2 mps 609 mmHg 26%
    14:00 +24°C° 0 mm 3 mps 609 mmHg 23%
    15:00 +24°C° 0 mm 3 mps 608 mmHg 21%
    16:00 +23°C° 0 mm 2 mps 608 mmHg 25%
    17:00 +20°C° 0 mm 2 mps 607 mmHg 28%
    18:00 +19°C° 0 mm 1 mps 607 mmHg 32%
    19:00 +18°C° 0 mm 1 mps 607 mmHg 33%
    20:00 +18°C° 0 mm 1 mps 607 mmHg 34%
    21:00 +16°C° 0 mm 1 mps 607 mmHg 36%
    22:00 +16°C° 0 mm 1 mps 607 mmHg 36%
    23:00 +15°C° 0 mm 1 mps 607 mmHg 37%
    Show more